PIA701 OPKC-OPIS

Flight info

Callsign PIA701
Flight time 2h 26m
Altitude 39000
Route BADUL B466 NH Z301 BELKO
Aircraft B772/H-SDE2E3FGHIJ5LORVWXY/LB1D1

Departure

Time 2026-04-30 01:15
Airport Jinnah International Airport (OPKC)

Arrival

Time 2026-04-30 03:41
Airport Islamabad International Airport (OPIS)
Time Latitude Longitude Altitude Speed Heading
2026-04-29 23:55 24.90298 67.16837 105 ft 0 kts 125°
2026-04-30 01:01 24.90306 67.16825 105 ft 4 kts 123°
2026-04-30 01:01 24.90321 67.16800 105 ft 4 kts 119°
2026-04-30 01:01 24.90333 67.16774 83 ft 4 kts 113°
2026-04-30 01:02 24.90341 67.16746 105 ft 4 kts 94°
2026-04-30 01:02 24.90339 67.16725 104 ft 4 kts 17°
2026-04-30 01:02 24.90333 67.16725 104 ft 1 kts 345°
2026-04-30 01:04 24.90333 67.16724 104 ft 2 kts 345°
2026-04-30 01:05 24.90376 67.16712 107 ft 7 kts 345°
2026-04-30 01:05 24.90409 67.16702 107 ft 0 kts 343°
2026-04-30 01:06 24.90410 67.16702 107 ft 0 kts 343°
2026-04-30 01:07 24.90413 67.16701 107 ft 3 kts 343°
2026-04-30 01:07 24.90452 67.16693 108 ft 7 kts
2026-04-30 01:07 24.90484 67.16730 106 ft 7 kts 71°
2026-04-30 01:08 24.90498 67.16781 106 ft 7 kts 73°
2026-04-30 01:08 24.90511 67.16833 106 ft 7 kts 75°
2026-04-30 01:08 24.90524 67.16885 106 ft 7 kts 75°
2026-04-30 01:08 24.90537 67.16936 106 ft 7 kts 75°
2026-04-30 01:09 24.90550 67.16988 106 ft 7 kts 75°
2026-04-30 01:09 24.90563 67.17039 106 ft 7 kts 75°
2026-04-30 01:09 24.90576 67.17091 107 ft 7 kts 74°
2026-04-30 01:09 24.90590 67.17142 107 ft 7 kts 73°
2026-04-30 01:10 24.90604 67.17194 107 ft 7 kts 73°
2026-04-30 01:10 24.90618 67.17245 107 ft 7 kts 74°
2026-04-30 01:10 24.90626 67.17280 107 ft 7 kts 75°
2026-04-30 01:10 24.90639 67.17332 106 ft 7 kts 75°
2026-04-30 01:11 24.90656 67.17382 106 ft 7 kts 60°
2026-04-30 01:11 24.90687 67.17422 107 ft 7 kts 42°
2026-04-30 01:11 24.90726 67.17450 107 ft 5 kts 28°
2026-04-30 01:11 24.90731 67.17453 108 ft 0 kts 29°
2026-04-30 01:13 24.90741 67.17460 108 ft 4 kts 29°
2026-04-30 01:13 24.90766 67.17475 109 ft 4 kts 29°
2026-04-30 01:13 24.90792 67.17490 109 ft 4 kts 27°
2026-04-30 01:14 24.90826 67.17499 110 ft 7 kts
2026-04-30 01:14 24.90867 67.17473 109 ft 7 kts 291°
2026-04-30 01:14 24.90854 67.17398 109 ft 23 kts 255°
2026-04-30 01:14 24.90751 67.16988 110 ft 97 kts 254°
2026-04-30 01:15 24.90492 67.15990 118 ft 170 kts 253°
2026-04-30 01:15 24.90179 67.14683 934 ft 169 kts 257°
2026-04-30 01:15 24.90107 67.13472 2084 ft 158 kts 283°
2026-04-30 01:15 24.90655 67.12404 2653 ft 176 kts 315°
2026-04-30 01:16 24.91893 67.11838 2931 ft 215 kts 352°
2026-04-30 01:16 24.93432 67.12316 3236 ft 251 kts 33°
2026-04-30 01:16 24.94600 67.13780 3763 ft 264 kts 51°
2026-04-30 01:16 24.95698 67.15443 4421 ft 271 kts 50°
2026-04-30 01:17 24.96830 67.17102 5244 ft 272 kts 50°
2026-04-30 01:17 24.98015 67.18800 5782 ft 285 kts 49°
2026-04-30 01:17 24.99254 67.20545 6484 ft 291 kts 49°
2026-04-30 01:17 25.00522 67.22308 7188 ft 295 kts 49°
2026-04-30 01:18 25.01809 67.24082 7954 ft 296 kts 50°
2026-04-30 01:18 25.03102 67.25856 8727 ft 297 kts 50°
2026-04-30 01:18 25.04403 67.27634 9480 ft 299 kts 50°
2026-04-30 01:18 25.05725 67.29438 10011 ft 309 kts 50°
2026-04-30 01:19 25.07124 67.31341 10177 ft 331 kts 50°
2026-04-30 01:19 25.08624 67.33384 10493 ft 349 kts 50°
2026-04-30 01:19 25.10174 67.35491 11071 ft 358 kts 49°
2026-04-30 01:19 25.11887 67.37452 11835 ft 362 kts 40°
2026-04-30 01:20 25.13837 67.39228 12749 ft 365 kts 37°
2026-04-30 01:20 25.15849 67.40972 13648 ft 370 kts 36°
2026-04-30 01:20 25.17873 67.42762 14498 ft 374 kts 36°
2026-04-30 01:20 25.19888 67.44599 15387 ft 377 kts 36°
2026-04-30 01:21 25.21904 67.46465 16302 ft 380 kts 35°
2026-04-30 01:21 25.23940 67.48351 17178 ft 383 kts 34°
2026-04-30 01:21 25.26002 67.50238 18016 ft 386 kts 33°
2026-04-30 01:21 25.28095 67.52143 18679 ft 392 kts 33°
2026-04-30 01:22 25.30217 67.54072 19276 ft 399 kts 33°
2026-04-30 01:22 25.32352 67.56014 19870 ft 405 kts 33°
2026-04-30 01:22 25.34569 67.58034 20500 ft 411 kts 33°
2026-04-30 01:22 25.36762 67.60039 21115 ft 416 kts 33°
2026-04-30 01:23 25.39004 67.62089 21745 ft 421 kts 33°
2026-04-30 01:23 25.41276 67.64169 22362 ft 426 kts 32°
2026-04-30 01:23 25.43568 67.66269 22973 ft 431 kts 32°
2026-04-30 01:23 25.45894 67.68400 23530 ft 435 kts 32°
2026-04-30 01:24 25.48234 67.70547 24069 ft 439 kts 32°
2026-04-30 01:24 25.50591 67.72710 24628 ft 441 kts 32°
2026-04-30 01:24 25.52964 67.74890 25179 ft 445 kts 32°
2026-04-30 01:24 25.55356 67.77086 25726 ft 448 kts 32°
2026-04-30 01:25 25.57732 67.79272 26223 ft 452 kts 32°
2026-04-30 01:25 25.60163 67.81507 26721 ft 455 kts 32°
2026-04-30 01:25 25.62611 67.83757 27229 ft 459 kts 32°
2026-04-30 01:25 25.65076 67.86024 27733 ft 462 kts 32°
2026-04-30 01:26 25.67562 67.88312 28237 ft 465 kts 32°
2026-04-30 01:26 25.70062 67.90615 28728 ft 469 kts 32°
2026-04-30 01:26 25.72576 67.92934 29210 ft 472 kts 33°
2026-04-30 01:26 25.75115 67.95276 29632 ft 476 kts 32°
2026-04-30 01:27 25.77674 67.97638 30005 ft 480 kts 32°
2026-04-30 01:27 25.80255 68.00021 30383 ft 483 kts 32°
2026-04-30 01:27 25.82846 68.02415 30775 ft 486 kts 32°
2026-04-30 01:27 25.85453 68.04827 31168 ft 488 kts 32°
2026-04-30 01:28 25.88040 68.07220 31546 ft 491 kts 33°
2026-04-30 01:28 25.90673 68.09658 31905 ft 494 kts 33°
2026-04-30 01:28 25.93318 68.12108 32253 ft 497 kts 33°
2026-04-30 01:28 25.95981 68.14577 32591 ft 500 kts 33°
2026-04-30 01:29 25.98668 68.17069 32917 ft 502 kts 33°
2026-04-30 01:29 26.01358 68.19566 33214 ft 505 kts 33°
2026-04-30 01:29 26.04059 68.22074 33527 ft 507 kts 33°
2026-04-30 01:29 26.06767 68.24592 33833 ft 508 kts 33°
2026-04-30 01:30 26.09480 68.27115 34143 ft 508 kts 33°
2026-04-30 01:30 26.12186 68.29634 34520 ft 507 kts 33°
2026-04-30 01:30 26.14851 68.32117 34920 ft 505 kts 33°
2026-04-30 01:30 26.17534 68.34616 35326 ft 503 kts 33°
2026-04-30 01:31 26.20226 68.37086 35717 ft 499 kts 31°
2026-04-30 01:31 26.23042 68.39320 36071 ft 493 kts 25°
2026-04-30 01:31 26.26005 68.41201 36435 ft 487 kts 21°
2026-04-30 01:31 26.29010 68.42956 36792 ft 486 kts 20°
2026-04-30 01:32 26.31998 68.44689 37157 ft 485 kts 20°
2026-04-30 01:32 26.34989 68.46435 37535 ft 484 kts 21°
2026-04-30 01:32 26.37963 68.48188 37891 ft 483 kts 21°
2026-04-30 01:32 26.40892 68.49928 38244 ft 483 kts 21°
2026-04-30 01:33 26.43888 68.51716 38515 ft 483 kts 21°
2026-04-30 01:33 26.46809 68.53462 38781 ft 482 kts 21°
2026-04-30 01:33 26.49761 68.55230 39054 ft 481 kts 21°
2026-04-30 01:33 26.52718 68.57000 39307 ft 481 kts 21°
2026-04-30 01:34 26.55665 68.58764 39541 ft 481 kts 21°
2026-04-30 01:34 26.58613 68.60530 39789 ft 481 kts 21°
2026-04-30 01:34 26.61555 68.62292 40028 ft 480 kts 21°
2026-04-30 01:34 26.64503 68.64059 40267 ft 480 kts 21°
2026-04-30 01:35 26.67449 68.65817 40486 ft 480 kts 21°
2026-04-30 01:35 26.70401 68.67575 40585 ft 482 kts 21°
2026-04-30 01:35 26.76363 68.71124 40650 ft 486 kts 21°
2026-04-30 01:36 26.82266 68.74654 40634 ft 480 kts 21°
2026-04-30 01:36 26.88128 68.78165 40646 ft 477 kts 21°
2026-04-30 01:37 26.93970 68.81662 40659 ft 476 kts 21°
2026-04-30 01:37 26.99814 68.85165 40657 ft 476 kts 21°
2026-04-30 01:38 27.05659 68.88673 40668 ft 477 kts 21°
2026-04-30 01:38 27.11521 68.92196 40664 ft 478 kts 21°
2026-04-30 01:39 27.17352 68.95706 40654 ft 479 kts 21°
2026-04-30 01:39 27.23232 68.99249 40653 ft 480 kts 21°
2026-04-30 01:40 27.29114 69.02798 40653 ft 480 kts 21°
2026-04-30 01:40 27.35014 69.06362 40663 ft 481 kts 21°
2026-04-30 01:41 27.40922 69.09934 40656 ft 481 kts 21°
2026-04-30 01:41 27.46833 69.13507 40652 ft 482 kts 21°
2026-04-30 01:42 27.52696 69.17053 40656 ft 482 kts 21°
2026-04-30 01:42 27.58602 69.20631 40661 ft 481 kts 21°
2026-04-30 01:43 27.64500 69.24209 40674 ft 481 kts 21°
2026-04-30 01:43 27.70395 69.27790 40658 ft 480 kts 21°
2026-04-30 01:44 27.76269 69.31364 40652 ft 479 kts 21°
2026-04-30 01:44 27.82129 69.34932 40653 ft 478 kts 21°
2026-04-30 01:45 27.87968 69.38491 40653 ft 477 kts 21°
2026-04-30 01:45 27.93810 69.42057 40653 ft 476 kts 21°
2026-04-30 01:46 27.99642 69.45621 40663 ft 476 kts 21°
2026-04-30 01:46 28.05432 69.49164 40656 ft 476 kts 21°
2026-04-30 01:47 28.11264 69.52737 40654 ft 476 kts 21°
2026-04-30 01:47 28.17092 69.56312 40659 ft 476 kts 21°
2026-04-30 01:48 28.22929 69.59898 40653 ft 476 kts 21°
2026-04-30 01:48 28.28759 69.63483 40666 ft 476 kts 21°
2026-04-30 01:49 28.34588 69.67073 40659 ft 476 kts 21°
2026-04-30 01:49 28.40415 69.70666 40669 ft 476 kts 21°
2026-04-30 01:50 28.46205 69.74241 40667 ft 476 kts 21°
2026-04-30 01:50 28.52035 69.77844 40668 ft 476 kts 21°
2026-04-30 01:51 28.57864 69.81414 40682 ft 476 kts 21°
2026-04-30 01:51 28.63725 69.84927 40675 ft 476 kts 21°
2026-04-30 01:52 28.69597 69.88445 40684 ft 476 kts 20°
2026-04-30 01:52 28.75423 69.91952 40684 ft 477 kts 20°
2026-04-30 01:53 28.81287 69.95493 40684 ft 477 kts 20°
2026-04-30 01:53 28.87150 69.99039 40708 ft 477 kts 20°
2026-04-30 01:54 28.93021 70.02593 40693 ft 478 kts 20°
2026-04-30 01:54 28.98899 70.06156 40696 ft 478 kts 20°
2026-04-30 01:55 29.04773 70.09722 40687 ft 479 kts 20°
2026-04-30 01:55 29.10662 70.13301 40687 ft 479 kts 20°
2026-04-30 01:56 29.16513 70.16862 40692 ft 479 kts 20°
2026-04-30 01:56 29.22406 70.20453 40706 ft 479 kts 20°
2026-04-30 01:57 29.28291 70.24044 40694 ft 480 kts 20°
2026-04-30 01:57 29.34181 70.27643 40688 ft 479 kts 20°
2026-04-30 01:58 29.39074 70.30636 40693 ft 479 kts 20°
2026-04-30 01:58 29.44955 70.34238 40687 ft 479 kts 20°
2026-04-30 01:59 29.53780 70.39652 40694 ft 478 kts 19°
2026-04-30 02:00 29.59644 70.43255 40694 ft 478 kts 19°
2026-04-30 02:00 29.65473 70.46842 40691 ft 477 kts 19°
2026-04-30 02:01 29.71355 70.50466 40690 ft 476 kts 19°
2026-04-30 02:01 29.77155 70.54044 40696 ft 476 kts 19°
2026-04-30 02:02 29.82984 70.57645 40689 ft 476 kts 20°
2026-04-30 02:02 29.88817 70.61253 40695 ft 475 kts 20°
2026-04-30 02:03 29.94649 70.64865 40690 ft 475 kts 20°
2026-04-30 02:03 30.00479 70.68481 40688 ft 476 kts 20°
2026-04-30 02:04 30.06307 70.72101 40695 ft 476 kts 20°
2026-04-30 02:04 30.12144 70.75731 40699 ft 476 kts 19°
2026-04-30 02:05 30.17982 70.79368 40690 ft 477 kts 19°
2026-04-30 02:05 30.22768 70.82351 40693 ft 476 kts 19°
2026-04-30 02:31 30.27765 70.85254 40702 ft 473 kts 17°
2026-04-30 02:32 30.33707 70.88533 40717 ft 473 kts 17°
2026-04-30 02:32 30.39646 70.91831 40715 ft 474 kts 17°
2026-04-30 02:33 30.45548 70.95152 40707 ft 474 kts 17°
2026-04-30 02:33 30.51490 70.98516 40708 ft 474 kts 17°
2026-04-30 02:34 30.57410 71.01872 40711 ft 473 kts 17°
2026-04-30 02:34 30.63327 71.05229 40708 ft 473 kts 17°
2026-04-30 02:35 30.69241 71.08588 40710 ft 473 kts 17°
2026-04-30 02:35 30.75153 71.11950 40721 ft 473 kts 17°
2026-04-30 02:36 30.81056 71.15312 40702 ft 473 kts 17°
2026-04-30 02:36 30.86929 71.18661 40705 ft 473 kts 17°
2026-04-30 02:37 30.92837 71.22036 40704 ft 473 kts 17°
2026-04-30 02:37 30.98744 71.25414 40714 ft 473 kts 17°
2026-04-30 02:38 31.04659 71.28801 40710 ft 473 kts 17°
2026-04-30 02:38 31.10578 71.32196 40710 ft 474 kts 17°
2026-04-30 02:39 31.16491 71.35592 40704 ft 474 kts 17°
2026-04-30 02:39 31.22404 71.38994 40707 ft 474 kts 17°
2026-04-30 02:40 31.28281 71.42379 40721 ft 474 kts 17°
2026-04-30 02:40 31.34198 71.45793 40717 ft 474 kts 17°
2026-04-30 02:41 31.40114 71.49212 40707 ft 474 kts 17°
2026-04-30 02:41 31.46040 71.52641 40713 ft 474 kts 17°
2026-04-30 02:42 31.51945 71.56062 40733 ft 474 kts 17°
2026-04-30 02:42 31.57860 71.59494 40723 ft 474 kts 17°
2026-04-30 02:43 31.63737 71.62910 40712 ft 474 kts 17°
2026-04-30 02:43 31.69647 71.66353 40721 ft 473 kts 17°
2026-04-30 02:44 31.75546 71.69795 40728 ft 472 kts 17°
2026-04-30 02:44 31.81396 71.73212 40712 ft 472 kts 17°
2026-04-30 02:45 31.87275 71.76651 40723 ft 472 kts 17°
2026-04-30 02:45 31.93156 71.80096 40721 ft 470 kts 17°
2026-04-30 02:45 31.96066 71.81810 40459 ft 463 kts 16°
2026-04-30 02:46 31.98939 71.83500 39777 ft 463 kts 16°
2026-04-30 02:46 32.01847 71.85203 38951 ft 468 kts 15°
2026-04-30 02:46 32.04775 71.86916 38114 ft 471 kts 15°
2026-04-30 02:46 32.07725 71.88645 37203 ft 474 kts 16°
2026-04-30 02:47 32.10674 71.90380 36516 ft 473 kts 16°
2026-04-30 02:47 32.13604 71.92112 35998 ft 468 kts 17°
2026-04-30 02:47 32.16464 71.93807 35540 ft 463 kts 17°
2026-04-30 02:47 32.19327 71.95500 35070 ft 458 kts 17°
2026-04-30 02:48 32.22168 71.97178 34579 ft 454 kts 17°
2026-04-30 02:48 32.24983 71.98840 34077 ft 451 kts 17°
2026-04-30 02:48 32.27780 72.00491 33566 ft 448 kts 17°
2026-04-30 02:48 32.30554 72.02129 32987 ft 445 kts 18°
2026-04-30 02:49 32.32387 72.03212 32606 ft 443 kts 18°
2026-04-30 02:49 32.35137 72.04840 32055 ft 441 kts 19°
2026-04-30 02:49 32.37870 72.06459 31508 ft 438 kts 19°
2026-04-30 02:49 32.40597 72.08075 30986 ft 437 kts 21°
2026-04-30 02:50 32.43316 72.09687 30412 ft 437 kts 22°
2026-04-30 02:50 32.46019 72.11326 29880 ft 436 kts 25°
2026-04-30 02:50 32.48577 72.13213 29180 ft 429 kts 32°
2026-04-30 02:50 32.50967 72.15288 28278 ft 423 kts 33°
2026-04-30 02:51 32.53317 72.17370 27332 ft 419 kts 33°
2026-04-30 02:51 32.55640 72.19434 26488 ft 414 kts 34°
2026-04-30 02:51 32.57935 72.21465 25697 ft 408 kts 34°
2026-04-30 02:51 32.60202 72.23463 24943 ft 403 kts 34°
2026-04-30 02:52 32.62437 72.25425 24226 ft 397 kts 34°
2026-04-30 02:52 32.64645 72.27359 23518 ft 392 kts 34°
2026-04-30 02:52 32.66826 72.29269 22724 ft 387 kts 34°
2026-04-30 02:52 32.68948 72.31127 22006 ft 381 kts 34°
2026-04-30 02:53 32.71078 72.32994 21572 ft 378 kts 34°
2026-04-30 02:53 32.73188 72.34844 21164 ft 376 kts 34°
2026-04-30 02:53 32.75288 72.36685 20753 ft 374 kts 34°
2026-04-30 02:53 32.77376 72.38518 20343 ft 372 kts 35°
2026-04-30 02:54 32.79448 72.40338 19931 ft 369 kts 35°
2026-04-30 02:54 32.81510 72.42150 19512 ft 368 kts 35°
2026-04-30 02:54 32.83563 72.43956 19112 ft 366 kts 35°
2026-04-30 02:54 32.85608 72.45755 18705 ft 364 kts 35°
2026-04-30 02:55 32.87641 72.47545 18291 ft 364 kts 35°
2026-04-30 02:55 32.89673 72.49336 17832 ft 363 kts 35°
2026-04-30 02:55 32.91672 72.51098 17388 ft 361 kts 35°
2026-04-30 02:55 32.93682 72.52872 16960 ft 359 kts 35°
2026-04-30 02:56 32.95681 72.54636 16541 ft 356 kts 35°
2026-04-30 02:56 32.97667 72.56391 16115 ft 354 kts 35°
2026-04-30 02:56 32.99640 72.58134 15695 ft 352 kts 35°
2026-04-30 02:56 33.01600 72.59866 15298 ft 350 kts 35°
2026-04-30 02:57 33.03548 72.61590 14891 ft 348 kts 35°
2026-04-30 02:57 33.05413 72.63386 14465 ft 342 kts 43°
2026-04-30 02:57 33.07004 72.65492 14075 ft 341 kts 49°
2026-04-30 02:57 33.08470 72.67711 13682 ft 340 kts 51°
2026-04-30 02:58 33.08483 72.67731 13678 ft 340 kts 51°
2026-04-30 02:58 33.08827 72.68266 13569 ft 340 kts 51°
2026-04-30 03:29 33.09618 72.69498 13303 ft 340 kts 51°
2026-04-30 03:29 33.11053 72.71714 13027 ft 333 kts 51°
2026-04-30 03:29 33.12465 72.73867 12693 ft 328 kts 50°
2026-04-30 03:29 33.13876 72.75994 12318 ft 325 kts 50°
2026-04-30 03:30 33.15280 72.78094 11941 ft 322 kts 50°
2026-04-30 03:30 33.16678 72.80173 11567 ft 320 kts 50°
2026-04-30 03:30 33.18068 72.82235 11193 ft 318 kts 50°
2026-04-30 03:30 33.19455 72.84290 10824 ft 316 kts 50°
2026-04-30 03:31 33.20835 72.86332 10453 ft 315 kts 50°
2026-04-30 03:31 33.22193 72.88344 10294 ft 307 kts 50°
2026-04-30 03:31 33.23514 72.90301 10155 ft 298 kts 50°
2026-04-30 03:31 33.24797 72.92202 9997 ft 290 kts 50°
2026-04-30 03:32 33.26059 72.94072 9712 ft 288 kts 50°
2026-04-30 03:32 33.27297 72.95906 9439 ft 285 kts 50°
2026-04-30 03:32 33.28531 72.97735 9187 ft 281 kts 50°
2026-04-30 03:32 33.29755 72.99553 8868 ft 280 kts 51°
2026-04-30 03:33 33.30977 73.01368 8522 ft 280 kts 51°
2026-04-30 03:33 33.32194 73.03177 8211 ft 278 kts 51°
2026-04-30 03:33 33.33404 73.04975 7966 ft 275 kts 51°
2026-04-30 03:33 33.34587 73.06734 7849 ft 266 kts 51°
2026-04-30 03:34 33.35732 73.08438 7737 ft 259 kts 51°
2026-04-30 03:34 33.36846 73.10096 7545 ft 253 kts 51°
2026-04-30 03:34 33.37942 73.11728 7328 ft 251 kts 51°
2026-04-30 03:34 33.39081 73.13298 6974 ft 248 kts 39°
2026-04-30 03:35 33.40624 73.14107 6802 ft 243 kts
2026-04-30 03:35 33.42284 73.13847 6530 ft 243 kts 338°
2026-04-30 03:35 33.43702 73.12783 6261 ft 240 kts 320°
2026-04-30 03:35 33.44928 73.11445 5995 ft 237 kts 316°
2026-04-30 03:36 33.46123 73.10092 5723 ft 235 kts 317°
2026-04-30 03:36 33.46913 73.09204 5538 ft 234 kts 317°
2026-04-30 03:36 33.48097 73.07886 5264 ft 232 kts 317°
2026-04-30 03:36 33.49643 73.06175 5055 ft 223 kts 317°
2026-04-30 03:37 33.50795 73.04896 4941 ft 223 kts 314°
2026-04-30 03:37 33.51601 73.03283 4742 ft 230 kts 288°
2026-04-30 03:37 33.52025 73.01445 4479 ft 227 kts 284°
2026-04-30 03:37 33.52337 72.99644 4174 ft 213 kts 282°
2026-04-30 03:38 33.52511 72.98519 3979 ft 202 kts 282°
2026-04-30 03:38 33.52756 72.96931 3737 ft 188 kts 282°
2026-04-30 03:38 33.52986 72.95450 3500 ft 172 kts 283°
2026-04-30 03:38 33.53261 72.93703 3238 ft 151 kts 283°
2026-04-30 03:39 33.53390 72.92876 3129 ft 148 kts 282°
2026-04-30 03:39 33.53576 72.91680 2919 ft 147 kts 284°
2026-04-30 03:39 33.53763 72.90488 2760 ft 146 kts 284°
2026-04-30 03:39 33.53952 72.89282 2553 ft 146 kts 283°
2026-04-30 03:40 33.54129 72.88093 2361 ft 144 kts 282°
2026-04-30 03:40 33.54313 72.86926 2199 ft 142 kts 282°
2026-04-30 03:40 33.54499 72.85752 2033 ft 145 kts 281°
2026-04-30 03:40 33.54695 72.84542 1829 ft 150 kts 280°
2026-04-30 03:41 33.54870 72.83371 1774 ft 129 kts 280°
2026-04-30 03:41 33.55011 72.82497 1770 ft 85 kts 281°
2026-04-30 03:41 33.55088 72.81999 1768 ft 38 kts 280°
2026-04-30 03:41 33.55117 72.81811 1766 ft 20 kts 280°
2026-04-30 03:42 33.55141 72.81661 1768 ft 10 kts 281°
2026-04-30 03:42 33.55170 72.81599 1768 ft 9 kts 330°
2026-04-30 03:42 33.55231 72.81603 1766 ft 9 kts
2026-04-30 03:42 33.55292 72.81615 1766 ft 9 kts
2026-04-30 03:43 33.55336 72.81644 1768 ft 7 kts 69°
2026-04-30 03:43 33.55331 72.81705 1764 ft 7 kts 99°
2026-04-30 03:43 33.55322 72.81765 1768 ft 7 kts 101°
2026-04-30 03:43 33.55313 72.81826 1768 ft 7 kts 100°
2026-04-30 03:44 33.55310 72.81842 1769 ft 0 kts 100°
2026-04-30 03:46 33.55310 72.81845 1769 ft 6 kts 100°
2026-04-30 03:47 33.55292 72.81964 1768 ft 16 kts 100°
2026-04-30 03:47 33.55272 72.82091 1767 ft 16 kts 100°
2026-04-30 03:47 33.55253 72.82219 1772 ft 16 kts 100°
2026-04-30 03:47 33.55234 72.82346 1767 ft 16 kts 100°
2026-04-30 03:48 33.55215 72.82472 1769 ft 16 kts 100°
2026-04-30 03:48 33.55195 72.82599 1771 ft 16 kts 100°
2026-04-30 03:48 33.55176 72.82727 1771 ft 16 kts 100°
2026-04-30 03:48 33.55156 72.82854 1772 ft 16 kts 100°
2026-04-30 03:49 33.55151 72.82928 1771 ft 12 kts 63°
2026-04-30 03:49 33.55197 72.83006 1774 ft 16 kts 56°
2026-04-30 03:49 33.55242 72.83086 1774 ft 16 kts 55°
2026-04-30 03:49 33.55302 72.83188 1775 ft 8 kts 55°
2026-04-30 03:50 33.55329 72.83218 1774 ft 6 kts 355°
2026-04-30 03:50 33.55367 72.83199 1773 ft 4 kts 328°
2026-04-30 03:50 33.55404 72.83170 1772 ft 1 kts 326°